Lamoni, IA

9:42 PM CDT on June 26, 2017 (GMT -0500)
Lamoni Municipal

Weather History for KLWD - May, 2014

Change the Weather History Date:

Sunday, May 4, 2014

  Actual Average Record
Temperature  
Mean Temperature 58 °F 57 °F  
Max Temperature 67 °F 68 °F 86 °F (1949)
Min Temperature 48 °F 47 °F 34 °F (2011)
Degree Days  
Heating Degree Days 7 8  
Month to date heating degree days 40 34  
Since 1 July heating degree days 6658 5929  
Cooling Degree Days 0 0  
Month to date cooling degree days 0 0  
Year to date cooling degree days 5 7  
Growing Degree Days 7 (Base 50)    
Moisture  
Dew Point 42 °F    
Average Humidity 62    
Maximum Humidity 80    
Minimum Humidity 44    
Precipitation  
Precipitation 0.00 in 0.17 in 1.25 in (1991)
Month to date precipitation 0.01 0.69  
Sea Level Pressure  
Sea Level Pressure 29.91 in    
Wind  
Wind Speed 12 mph (ENE)    
Max Wind Speed 25 mph    
Max Gust Speed 31 mph    
Visibility 10 miles    
Events      
T = Trace of Precipitation, MM = Missing Value Source: NWS Daily Summary

Daily Weather History Graph

Daily Weather History Graph

Search for Another Location

Airport or City:

Trip Planner

Search our weather history database for the weather conditions in past years. The results will help you decide how hot, cold, wet, or windy it might be!

Date:

Astronomy

May. 04, 2014 Rise Set
Actual Time 6:10 AM CDT 8:14 PM CDT
Civil Twilight 5:40 AM CDT 8:44 PM CDT
Nautical Twilight 5:04 AM CDT 9:21 PM CDT
Astronomical Twilight 4:24 AM CDT 10:01 PM CDT
Moon 10:35 AM CDT (5/4) 12:20 AM CDT (5/4)
Length of Visible Light 15h 04m
Length of Day
14h 04m
Waxing Crescent, 28% of the Moon is Illuminated
May 4
Waxing Crescent
May 6
First Quarter
May 14
Full
May 21
Last Quarter
May 28
New

Hourly Weather History & Observations

Time (CDT) Temp. Dew Point Humidity Pressure Visibility Wind Dir Wind Speed Gust Speed Precip Events Conditions
12:53 AM 52.0 °F 43.0 °F 71% 29.94 in 10.0 mi NE 6.9 mph - N/A   Clear
1:53 AM 53.1 °F 43.0 °F 69% 29.92 in 10.0 mi East 6.9 mph - N/A   Clear
2:53 AM 50.0 °F 43.0 °F 77% 29.94 in 10.0 mi NE 8.1 mph - N/A   Clear
3:53 AM 48.9 °F 43.0 °F 80% 29.94 in 10.0 mi NE 8.1 mph - N/A   Clear
4:53 AM 51.1 °F 44.1 °F 77% 29.95 in 10.0 mi NE 9.2 mph - N/A   Clear
5:53 AM 51.1 °F 43.0 °F 74% 29.96 in 10.0 mi ENE 10.4 mph - N/A   Clear
6:53 AM 51.1 °F 39.9 °F 66% 29.96 in 10.0 mi ENE 9.2 mph - N/A   Clear
7:53 AM 53.1 °F 39.9 °F 61% 29.98 in 10.0 mi East 13.8 mph 20.7 mph N/A   Clear
8:53 AM 55.0 °F 39.0 °F 55% 29.96 in 10.0 mi ENE 16.1 mph 24.2 mph N/A   Clear
9:53 AM 57.0 °F 37.9 °F 49% 29.98 in 10.0 mi East 16.1 mph 26.5 mph N/A   Clear
10:53 AM 60.1 °F 41.0 °F 49% 29.96 in 10.0 mi ENE 15.0 mph 25.3 mph N/A   Clear
11:53 AM 60.1 °F 41.0 °F 49% 29.96 in 10.0 mi ENE 18.4 mph 29.9 mph N/A   Clear
12:53 PM 64.0 °F 44.1 °F 48% 29.93 in 10.0 mi ENE 18.4 mph 27.6 mph N/A   Clear
1:53 PM 63.0 °F 42.1 °F 46% 29.92 in 10.0 mi East 17.3 mph 27.6 mph N/A   Clear
2:53 PM 66.0 °F 45.0 °F 47% 29.91 in 10.0 mi ENE 17.3 mph 26.5 mph N/A   Clear
3:53 PM 64.9 °F 43.0 °F 45% 29.89 in 10.0 mi East 11.5 mph 24.2 mph N/A   Clear
4:53 PM 66.9 °F 44.1 °F 44% 29.86 in 10.0 mi East 16.1 mph 24.2 mph N/A   Clear
6:53 PM 66.0 °F 44.1 °F 45% 29.84 in 10.0 mi East 10.4 mph - N/A   Clear
7:53 PM 62.1 °F 43.0 °F 50% 29.83 in 10.0 mi ENE 10.4 mph - N/A   Clear
8:53 PM 61.0 °F 42.1 °F 50% 29.81 in 10.0 mi East 10.4 mph 18.4 mph N/A   Clear
9:53 PM 61.0 °F 42.1 °F 50% 29.82 in 10.0 mi East 11.5 mph 20.7 mph N/A   Clear
10:53 PM 59.0 °F 42.1 °F 53% 29.81 in 10.0 mi East 9.2 mph - N/A   Clear
11:53 PM 55.9 °F 41.0 °F 57% 29.81 in 10.0 mi ENE 10.4 mph - N/A   Clear